• In Deutschland
  • Länderverzeichnis
  • Für 7 Tage
  • Wassertemperatur
  • Satellitenkarten
  • Wetterkarte
  • Widgets
  • user-avatar
    Anmelden

    Stündliche Wetter Barisal

    Heute, 23 November, Donnerstag

    Zeit Temperatur Niederschläge Wind Luftdruck Luftfeuchtigkeit
    00:00 +20°C° 0 mm 1 m/S 757 mmHg 53%
    01:00 +19°C° 0 mm 2 m/S 757 mmHg 53%
    02:00 +19°C° 0 mm 2 m/S 757 mmHg 53%
    03:00 +19°C° 0 mm 2 m/S 757 mmHg 53%
    04:00 +19°C° 0 mm 2 m/S 757 mmHg 55%
    05:00 +18°C° 0 mm 2 m/S 757 mmHg 56%
    06:00 +18°C° 0 mm 2 m/S 757 mmHg 58%
    07:00 +20°C° 0 mm 3 m/S 758 mmHg 56%
    08:00 +22°C° 0 mm 3 m/S 758 mmHg 55%
    09:00 +25°C° 0 mm 3 m/S 759 mmHg 53%
    10:00 +26°C° 0 mm 4 m/S 758 mmHg 49%
    11:00 +28°C° 0 mm 4 m/S 758 mmHg 44%
    12:00 +29°C° 0 mm 4 m/S 758 mmHg 39%
    13:00 +29°C° 0 mm 4 m/S 757 mmHg 39%
    14:00 +29°C° 0 mm 4 m/S 757 mmHg 39%
    15:00 +30°C° 0 mm 3 m/S 756 mmHg 39%
    16:00 +28°C° 0 mm 3 m/S 756 mmHg 43%
    17:00 +26°C° 0 mm 2 m/S 756 mmHg 46%
    18:00 +24°C° 0 mm 2 m/S 756 mmHg 50%
    19:00 +23°C° 0 mm 2 m/S 757 mmHg 51%
    20:00 +23°C° 0 mm 2 m/S 757 mmHg 52%
    21:00 +21°C° 0 mm 3 m/S 758 mmHg 53%
    22:00 +21°C° 0 mm 3 m/S 758 mmHg 54%
    23:00 +20°C° 0 mm 3 m/S 758 mmHg 56%

    Morgen, 24 November, Freitag

    Zeit Temperatur Niederschläge Wind Luftdruck Luftfeuchtigkeit
    00:00 +20°C° 0 mm 3 m/S 758 mmHg 57%
    01:00 +19°C° 0 mm 3 m/S 758 mmHg 58%
    02:00 +19°C° 0 mm 3 m/S 758 mmHg 59%
    03:00 +19°C° 0 mm 3 m/S 758 mmHg 60%
    04:00 +19°C° 0 mm 3 m/S 758 mmHg 59%
    05:00 +18°C° 0 mm 3 m/S 758 mmHg 58%
    06:00 +18°C° 0 mm 3 m/S 758 mmHg 58%
    07:00 +20°C° 0 mm 3 m/S 759 mmHg 55%
    08:00 +22°C° 0 mm 3 m/S 759 mmHg 52%
    09:00 +24°C° 0 mm 3 m/S 760 mmHg 50%
    10:00 +26°C° 0 mm 3 m/S 760 mmHg 47%
    11:00 +27°C° 0 mm 3 m/S 759 mmHg 44%
    12:00 +29°C° 0 mm 2 m/S 759 mmHg 42%
    13:00 +29°C° 0 mm 2 m/S 758 mmHg 40%
    14:00 +29°C° 0 mm 2 m/S 758 mmHg 38%
    15:00 +30°C° 0 mm 2 m/S 757 mmHg 37%
    16:00 +28°C° 0 mm 2 m/S 757 mmHg 40%
    17:00 +26°C° 0 mm 2 m/S 758 mmHg 43%
    18:00 +24°C° 0 mm 2 m/S 758 mmHg 47%
    19:00 +23°C° 0 mm 2 m/S 758 mmHg 47%
    20:00 +21°C° 0 mm 2 m/S 759 mmHg 47%
    21:00 +20°C° 0 mm 2 m/S 759 mmHg 47%
    22:00 +20°C° 0 mm 2 m/S 759 mmHg 47%
    23:00 +19°C° 0 mm 2 m/S 759 mmHg 46%

    übermorgen, 25 November, Samstag

    Zeit Temperatur Niederschläge Wind Luftdruck Luftfeuchtigkeit
    00:00 +19°C° 0 mm 2 m/S 759 mmHg 46%
    01:00 +18°C° 0 mm 2 m/S 759 mmHg 47%
    02:00 +18°C° 0 mm 2 m/S 759 mmHg 47%
    03:00 +18°C° 0 mm 3 m/S 759 mmHg 48%
    04:00 +18°C° 0 mm 2 m/S 759 mmHg 50%
    05:00 +17°C° 0 mm 2 m/S 759 mmHg 53%
    06:00 +17°C° 0 mm 2 m/S 759 mmHg 55%
    07:00 +19°C° 0 mm 2 m/S 760 mmHg 54%
    08:00 +21°C° 0 mm 2 m/S 761 mmHg 54%
    09:00 +24°C° 0 mm 2 m/S 761 mmHg 54%
    10:00 +26°C° 0 mm 2 m/S 761 mmHg 49%
    11:00 +27°C° 0 mm 2 m/S 760 mmHg 45%
    12:00 +29°C° 0 mm 2 m/S 760 mmHg 41%
    13:00 +29°C° 0 mm 2 m/S 759 mmHg 39%
    14:00 +29°C° 0 mm 1 m/S 759 mmHg 38%
    15:00 +30°C° 0 mm 1 m/S 758 mmHg 37%
    16:00 +28°C° 0 mm 1 m/S 758 mmHg 41%
    17:00 +26°C° 0 mm 1 m/S 758 mmHg 45%
    18:00 +24°C° 0 mm 1 m/S 759 mmHg 49%
    19:00 +23°C° 0 mm 2 m/S 759 mmHg 49%
    20:00 +23°C° 0 mm 2 m/S 760 mmHg 50%
    21:00 +21°C° 0 mm 2 m/S 760 mmHg 51%
    22:00 +20°C° 0 mm 2 m/S 760 mmHg 52%
    23:00 +20°C° 0 mm 2 m/S 760 mmHg 53%

    26 November, Sonntag

    Zeit Temperatur Niederschläge Wind Luftdruck Luftfeuchtigkeit
    00:00 +20°C° 0 mm 2 m/S 760 mmHg 54%
    01:00 +19°C° 0 mm 2 m/S 760 mmHg 56%
    02:00 +19°C° 0 mm 2 m/S 760 mmHg 57%
    03:00 +19°C° 0 mm 2 m/S 759 mmHg 59%
    04:00 +18°C° 0 mm 2 m/S 760 mmHg 63%
    05:00 +18°C° 0 mm 2 m/S 760 mmHg 66%
    06:00 +18°C° 0 mm 2 m/S 760 mmHg 69%
    07:00 +20°C° 0 mm 2 m/S 761 mmHg 66%
    08:00 +23°C° 0 mm 2 m/S 761 mmHg 62%
    09:00 +25°C° 0 mm 2 m/S 762 mmHg 59%
    10:00 +27°C° 0 mm 2 m/S 761 mmHg 54%
    11:00 +28°C° 0 mm 2 m/S 761 mmHg 48%
    12:00 +29°C° 0 mm 2 m/S 760 mmHg 43%
    13:00 +30°C° 0 mm 2 m/S 759 mmHg 42%
    14:00 +30°C° 0 mm 2 m/S 759 mmHg 40%
    15:00 +30°C° 0 mm 2 m/S 758 mmHg 39%
    16:00 +28°C° 0 mm 1 m/S 758 mmHg 43%
    17:00 +26°C° 0 mm 1 m/S 758 mmHg 48%
    18:00 +24°C° 0 mm 1 m/S 758 mmHg 52%
    19:00 +24°C° 0 mm 1 m/S 759 mmHg 53%
    20:00 +23°C° 0 mm 1 m/S 759 mmHg 55%
    21:00 +21°C° 0 mm 2 m/S 760 mmHg 57%
    22:00 +21°C° 0 mm 2 m/S 759 mmHg 58%
    23:00 +20°C° 0 mm 2 m/S 759 mmHg 60%

    27 November, Montag

    Zeit Temperatur Niederschläge Wind Luftdruck Luftfeuchtigkeit
    00:00 +20°C° 0 mm 2 m/S 759 mmHg 61%
    01:00 +20°C° 0 mm 3 m/S 759 mmHg 62%
    02:00 +19°C° 0 mm 3 m/S 759 mmHg 63%
    03:00 +19°C° 0 mm 3 m/S 758 mmHg 65%
    04:00 +19°C° 0 mm 3 m/S 759 mmHg 67%
    05:00 +19°C° 0 mm 3 m/S 759 mmHg 69%
    06:00 +19°C° 0 mm 2 m/S 759 mmHg 71%
    07:00 +21°C° 0 mm 2 m/S 759 mmHg 66%
    08:00 +23°C° 0 mm 2 m/S 760 mmHg 62%
    09:00 +25°C° 0 mm 2 m/S 760 mmHg 58%
    10:00 +27°C° 0 mm 2 m/S 760 mmHg 52%
    11:00 +28°C° 0 mm 2 m/S 759 mmHg 47%
    12:00 +29°C° 0 mm 2 m/S 759 mmHg 42%
    13:00 +29°C° 0 mm 2 m/S 758 mmHg 41%
    14:00 +30°C° 0 mm 2 m/S 757 mmHg 40%
    15:00 +30°C° 0 mm 2 m/S 757 mmHg 39%
    16:00 +28°C° 0 mm 2 m/S 757 mmHg 44%
    17:00 +26°C° 0 mm 2 m/S 757 mmHg 48%
    18:00 +24°C° 0 mm 2 m/S 757 mmHg 53%
    19:00 +24°C° 0 mm 2 m/S 757 mmHg 54%
    20:00 +23°C° 0 mm 2 m/S 758 mmHg 56%
    21:00 +21°C° 0 mm 2 m/S 758 mmHg 57%
    22:00 +21°C° 0 mm 2 m/S 758 mmHg 59%
    23:00 +21°C° 0 mm 2 m/S 758 mmHg 60%

    28 November, Dienstag

    Zeit Temperatur Niederschläge Wind Luftdruck Luftfeuchtigkeit
    00:00 +20°C° 0 mm 2 m/S 758 mmHg 61%
    01:00 +20°C° 0 mm 2 m/S 758 mmHg 63%
    02:00 +19°C° 0 mm 2 m/S 758 mmHg 65%
    03:00 +19°C° 0 mm 2 m/S 757 mmHg 67%
    04:00 +19°C° 0 mm 2 m/S 758 mmHg 69%
    05:00 +19°C° 0 mm 2 m/S 758 mmHg 72%
    06:00 +18°C° 0 mm 2 m/S 758 mmHg 74%
    07:00 +20°C° 0 mm 2 m/S 759 mmHg 68%
    08:00 +23°C° 0 mm 2 m/S 759 mmHg 62%
    09:00 +25°C° 0 mm 2 m/S 760 mmHg 56%
    10:00 +27°C° 0 mm 2 m/S 759 mmHg 50%
    11:00 +28°C° 0 mm 3 m/S 759 mmHg 43%
    12:00 +29°C° 0 mm 3 m/S 759 mmHg 36%
    13:00 +29°C° 0 mm 3 m/S 758 mmHg 36%
    14:00 +30°C° 0 mm 3 m/S 758 mmHg 35%
    15:00 +30°C° 0 mm 3 m/S 757 mmHg 35%
    16:00 +28°C° 0 mm 3 m/S 757 mmHg 39%
    17:00 +26°C° 0 mm 2 m/S 757 mmHg 43%
    18:00 +24°C° 0 mm 2 m/S 758 mmHg 47%
    19:00 +23°C° 0 mm 2 m/S 758 mmHg 49%
    20:00 +23°C° 0 mm 1 m/S 758 mmHg 50%
    21:00 +22°C° 0 mm 1 m/S 759 mmHg 51%
    22:00 +22°C° 0 mm 1 m/S 758 mmHg 53%
    23:00 +20°C° 0 mm 2 m/S 758 mmHg 55%
    Mehr zeigen